Zurück zum Katalog

NIGCOMSAT 1

AktivKommunikationGEO
NORAD 31395·PAYLOAD·🇳🇬 Nigeria

Gestartet May 13, 2007 von Xichang Satellite Launch Center

Loading…

TLE

AktuellSource: Space-Track

Epoche: Sep 14, 2026, 10:39 UTC

1 31395U 07018A   26257.44443125  .00000038  00000-0  00000-0 0  9997
2 31395  12.0098  32.1288 0006292 127.0490  53.8933  1.00207734 70955

Verfolge NIGCOMSAT 1 in Echtzeit mit AllMySat

Download on the App Store